Time,TemperatureF,DewpointF,PressureIn,WindDirection,WindDirectionDegrees,WindSpeedMPH,WindSpeedGustMPH,Humidity,HourlyPrecipIn,Conditions,Clouds,dailyrainin,SolarRadiationWatts/m^2,SoftwareType,DateUTC
2013-08-18 00:03:00,-999.0,-99.9,-100.00,SE,144,1.0,2.0,-999,0.00,,,0.01,0.000000,,2013-08-18 04:03:00,
2013-08-18 00:13:00,48.0,47.0,-100.00,SE,144,1.0,2.0,98,0.00,,,0.01,0.000000,,2013-08-18 04:13:00,
2013-08-18 00:23:00,48.0,47.0,-100.00,SE,144,1.0,2.0,98,0.00,,,0.01,0.000000,,2013-08-18 04:23:00,
2013-08-18 00:53:00,46.0,45.0,-100.00,SE,136,1.0,3.0,98,0.00,,,0.01,0.000000,,2013-08-18 04:53:00,
2013-08-18 01:02:00,46.0,45.0,-100.00,SE,136,1.0,3.0,98,0.00,,,0.01,0.000000,,2013-08-18 05:02:00,
2013-08-18 01:12:00,46.0,45.0,-100.00,SE,136,1.0,3.0,98,0.00,,,0.01,0.000000,,2013-08-18 05:12:00,
2013-08-18 01:22:00,46.0,45.0,-100.00,SE,136,1.0,3.0,98,0.00,,,0.01,0.000000,,2013-08-18 05:22:00,
2013-08-18 01:52:00,45.0,45.0,-100.00,SSE,148,0.0,2.0,99,0.00,,,0.01,0.000000,,2013-08-18 05:52:00,
2013-08-18 02:01:00,45.0,45.0,-100.00,SSE,148,0.0,2.0,99,0.00,,,0.01,0.000000,,2013-08-18 06:01:00,
2013-08-18 02:11:00,45.0,45.0,-100.00,SSE,148,0.0,2.0,99,0.00,,,0.01,0.000000,,2013-08-18 06:11:00,
2013-08-18 02:21:00,45.0,45.0,-100.00,SSE,148,0.0,2.0,99,0.00,,,0.01,0.000000,,2013-08-18 06:21:00,
2013-08-18 02:52:00,43.0,43.0,-100.00,SE,126,0.0,2.0,99,0.00,,,0.01,0.000000,,2013-08-18 06:52:00,
2013-08-18 03:01:00,43.0,43.0,-100.00,SE,126,0.0,2.0,99,0.00,,,0.01,0.000000,,2013-08-18 07:01:00,
2013-08-18 03:11:00,43.0,43.0,-100.00,SE,126,0.0,2.0,99,0.00,,,0.01,0.000000,,2013-08-18 07:11:00,
2013-08-18 03:22:00,43.0,43.0,-100.00,SE,126,0.0,2.0,99,0.00,,,0.01,0.000000,,2013-08-18 07:22:00,
2013-08-18 03:52:00,43.0,43.0,-100.00,SSE,149,1.0,2.0,99,0.00,,,0.01,0.000000,,2013-08-18 07:52:00,
2013-08-18 04:01:00,43.0,43.0,-100.00,SSE,149,1.0,2.0,99,0.00,,,0.01,0.000000,,2013-08-18 08:01:00,
2013-08-18 04:12:00,43.0,43.0,-100.00,SSE,149,1.0,2.0,99,0.00,,,0.01,0.000000,,2013-08-18 08:12:00,
2013-08-18 04:21:00,43.0,43.0,-100.00,SSE,149,1.0,2.0,99,0.00,,,0.01,0.000000,,2013-08-18 08:21:00,
2013-08-18 04:52:00,42.0,42.0,-100.00,East,97,0.0,2.0,99,0.00,,,0.01,0.000000,,2013-08-18 08:52:00,
2013-08-18 05:02:00,42.0,42.0,-100.00,East,97,0.0,2.0,99,0.00,,,0.01,0.000000,,2013-08-18 09:02:00,
2013-08-18 05:11:00,42.0,42.0,-100.00,East,97,0.0,2.0,99,0.00,,,0.01,0.000000,,2013-08-18 09:11:00,
2013-08-18 05:21:00,42.0,42.0,-100.00,East,97,0.0,2.0,99,0.00,,,0.01,0.000000,,2013-08-18 09:21:00,
2013-08-18 05:53:00,41.0,41.0,-100.00,North,354,1.0,2.0,99,0.00,,,0.01,0.000000,,2013-08-18 09:53:00,
2013-08-18 06:03:00,41.0,41.0,-100.00,North,354,1.0,2.0,99,0.00,,,0.01,0.000000,,2013-08-18 10:03:00,
2013-08-18 06:13:00,41.0,41.0,-100.00,North,354,1.0,2.0,99,0.00,,,0.01,0.000000,,2013-08-18 10:13:00,
2013-08-18 06:23:00,41.0,41.0,-100.00,North,354,1.0,2.0,99,0.00,,,0.01,0.000000,,2013-08-18 10:23:00,
2013-08-18 06:52:00,42.0,42.0,-100.00,SE,142,1.0,2.0,99,0.00,,,0.00,10.000000,,2013-08-18 10:52:00,
2013-08-18 07:02:00,42.0,42.0,-100.00,SE,142,1.0,2.0,99,0.00,,,0.00,10.000000,,2013-08-18 11:02:00,
2013-08-18 07:11:00,42.0,42.0,-100.00,SE,142,1.0,2.0,99,0.00,,,0.00,10.000000,,2013-08-18 11:11:00,
2013-08-18 07:22:00,42.0,42.0,-100.00,SE,142,1.0,2.0,99,0.00,,,0.00,10.000000,,2013-08-18 11:22:00,
2013-08-18 07:52:00,44.0,44.0,-100.00,WNW,294,1.0,3.0,99,0.00,,,0.00,64.000000,,2013-08-18 11:52:00,
2013-08-18 08:01:00,44.0,44.0,-100.00,WNW,294,1.0,3.0,99,0.00,,,0.00,64.000000,,2013-08-18 12:01:00,
2013-08-18 08:11:00,44.0,44.0,-100.00,WNW,294,1.0,3.0,99,0.00,,,0.00,64.000000,,2013-08-18 12:11:00,
2013-08-18 08:21:00,44.0,44.0,-100.00,WNW,294,1.0,3.0,99,0.00,,,0.00,64.000000,,2013-08-18 12:21:00,
2013-08-18 08:52:00,49.0,48.0,-100.00,WNW,293,2.0,2.0,97,0.00,,,0.00,173.000000,,2013-08-18 12:52:00,
2013-08-18 09:01:00,49.0,48.0,-100.00,WNW,293,2.0,2.0,97,0.00,,,0.00,173.000000,,2013-08-18 13:01:00,
2013-08-18 09:11:00,49.0,48.0,-100.00,WNW,293,2.0,2.0,97,0.00,,,0.00,173.000000,,2013-08-18 13:11:00,
2013-08-18 09:21:00,49.0,48.0,-100.00,WNW,293,2.0,2.0,97,0.00,,,0.00,173.000000,,2013-08-18 13:21:00,
2013-08-18 09:52:00,55.0,51.0,-100.00,West,276,2.0,3.0,87,0.00,,,0.00,287.000000,,2013-08-18 13:52:00,
2013-08-18 10:02:00,55.0,51.0,-100.00,West,276,2.0,3.0,87,0.00,,,0.00,287.000000,,2013-08-18 14:02:00,
2013-08-18 10:11:00,55.0,51.0,-100.00,West,276,2.0,3.0,87,0.00,,,0.00,287.000000,,2013-08-18 14:11:00,
2013-08-18 10:21:00,55.0,51.0,-100.00,West,276,2.0,3.0,87,0.00,,,0.00,287.000000,,2013-08-18 14:21:00,
2013-08-18 10:53:00,63.0,54.0,-100.00,NW,311,2.0,3.0,73,0.00,,,0.00,418.000000,,2013-08-18 14:53:00,
2013-08-18 11:01:00,63.0,54.0,-100.00,NW,311,2.0,3.0,73,0.00,,,0.00,418.000000,,2013-08-18 15:01:00,
2013-08-18 11:12:00,63.0,54.0,-100.00,NW,311,2.0,3.0,73,0.00,,,0.00,418.000000,,2013-08-18 15:12:00,
2013-08-18 11:22:00,63.0,54.0,-100.00,NW,311,2.0,3.0,73,0.00,,,0.00,418.000000,,2013-08-18 15:22:00,
2013-08-18 12:13:00,71.0,56.0,-100.00,North,11,1.0,3.0,60,0.00,,,0.00,566.000000,,2013-08-18 16:13:00,
2013-08-18 12:23:00,71.0,56.0,-100.00,North,11,1.0,3.0,60,0.00,,,0.00,566.000000,,2013-08-18 16:23:00,
2013-08-18 12:52:00,73.0,54.0,-100.00,WSW,248,2.0,6.0,51,0.00,,,0.00,557.000000,,2013-08-18 16:52:00,
2013-08-18 13:02:00,73.0,54.0,-100.00,WSW,248,2.0,6.0,51,0.00,,,0.00,557.000000,,2013-08-18 17:02:00,
2013-08-18 13:13:00,73.0,54.0,-100.00,WSW,248,2.0,6.0,51,0.00,,,0.00,557.000000,,2013-08-18 17:13:00,
2013-08-18 13:23:00,73.0,54.0,-100.00,WSW,248,2.0,6.0,51,0.00,,,0.00,557.000000,,2013-08-18 17:23:00,
2013-08-18 13:52:00,76.0,55.0,-100.00,SSW,195,2.0,6.0,49,0.00,,,0.00,679.000000,,2013-08-18 17:52:00,
2013-08-18 14:02:00,76.0,55.0,-100.00,SSW,195,2.0,6.0,49,0.00,,,0.00,679.000000,,2013-08-18 18:02:00,
2013-08-18 14:12:00,76.0,55.0,-100.00,SSW,195,2.0,6.0,49,0.00,,,0.00,679.000000,,2013-08-18 18:12:00,
2013-08-18 14:22:00,76.0,55.0,-100.00,SSW,195,2.0,6.0,49,0.00,,,0.00,679.000000,,2013-08-18 18:22:00,
2013-08-18 14:52:00,77.0,56.0,-100.00,WNW,293,3.0,6.0,49,0.00,,,0.00,653.000000,,2013-08-18 18:52:00,
2013-08-18 15:01:00,77.0,56.0,-100.00,WNW,293,3.0,6.0,49,0.00,,,0.00,653.000000,,2013-08-18 19:01:00,
2013-08-18 15:11:00,77.0,56.0,-100.00,WNW,293,3.0,6.0,49,0.00,,,0.00,653.000000,,2013-08-18 19:11:00,
2013-08-18 15:22:00,77.0,56.0,-100.00,WNW,293,3.0,6.0,49,0.00,,,0.00,653.000000,,2013-08-18 19:22:00,
2013-08-18 15:52:00,77.0,56.0,-100.00,West,265,3.0,8.0,49,0.00,,,0.00,592.000000,,2013-08-18 19:52:00,
2013-08-18 16:02:00,77.0,56.0,-100.00,West,265,3.0,8.0,49,0.00,,,0.00,592.000000,,2013-08-18 20:02:00,
2013-08-18 16:12:00,77.0,56.0,-100.00,West,265,3.0,8.0,49,0.00,,,0.00,592.000000,,2013-08-18 20:12:00,
2013-08-18 16:22:00,77.0,56.0,-100.00,West,265,3.0,8.0,49,0.00,,,0.00,592.000000,,2013-08-18 20:22:00,
2013-08-18 16:52:00,77.0,58.0,-100.00,West,277,4.0,9.0,52,0.00,,,0.00,512.000000,,2013-08-18 20:52:00,
2013-08-18 17:01:00,77.0,58.0,-100.00,West,277,4.0,9.0,52,0.00,,,0.00,512.000000,,2013-08-18 21:01:00,
2013-08-18 17:11:00,77.0,58.0,-100.00,West,277,4.0,9.0,52,0.00,,,0.00,512.000000,,2013-08-18 21:11:00,
2013-08-18 17:22:00,77.0,58.0,-100.00,West,277,4.0,9.0,52,0.00,,,0.00,512.000000,,2013-08-18 21:22:00,
2013-08-18 17:53:00,74.0,59.0,-100.00,SW,219,2.0,8.0,59,0.00,,,0.00,306.000000,,2013-08-18 21:53:00,
2013-08-18 18:04:00,74.0,59.0,-100.00,SW,219,2.0,8.0,59,0.00,,,0.00,306.000000,,2013-08-18 22:04:00,
2013-08-18 18:13:00,74.0,59.0,-100.00,SW,219,2.0,8.0,59,0.00,,,0.00,306.000000,,2013-08-18 22:13:00,
2013-08-18 18:23:00,74.0,59.0,-100.00,SW,219,2.0,8.0,59,0.00,,,0.00,306.000000,,2013-08-18 22:23:00,
2013-08-18 18:52:00,72.0,60.0,-100.00,SW,220,2.0,4.0,67,0.00,,,0.00,188.000000,,2013-08-18 22:52:00,
2013-08-18 19:02:00,72.0,60.0,-100.00,SW,220,2.0,4.0,67,0.00,,,0.00,188.000000,,2013-08-18 23:02:00,
2013-08-18 19:11:00,72.0,60.0,-100.00,SW,220,2.0,4.0,67,0.00,,,0.00,188.000000,,2013-08-18 23:11:00,
2013-08-18 19:22:00,72.0,60.0,-100.00,SW,220,2.0,4.0,67,0.00,,,0.00,188.000000,,2013-08-18 23:22:00,
2013-08-18 19:52:00,65.0,59.0,-100.00,SE,128,2.0,5.0,82,0.00,,,0.00,133.000000,,2013-08-18 23:52:00,
2013-08-18 20:03:00,65.0,59.0,-100.00,SE,128,2.0,5.0,82,0.00,,,0.00,133.000000,,2013-08-19 00:03:00,
2013-08-18 20:12:00,65.0,59.0,-100.00,SE,128,2.0,5.0,82,0.00,,,0.00,133.000000,,2013-08-19 00:12:00,
2013-08-18 20:21:00,65.0,59.0,-100.00,SE,128,2.0,5.0,82,0.00,,,0.00,133.000000,,2013-08-19 00:21:00,
2013-08-18 20:52:00,58.0,55.0,-100.00,ESE,121,3.0,4.0,91,0.00,,,0.00,7.000000,,2013-08-19 00:52:00,
2013-08-18 21:02:00,58.0,55.0,-100.00,ESE,121,3.0,4.0,91,0.00,,,0.00,7.000000,,2013-08-19 01:02:00,
2013-08-18 21:12:00,58.0,55.0,-100.00,ESE,121,3.0,4.0,91,0.00,,,0.00,7.000000,,2013-08-19 01:12:00,
2013-08-18 21:22:00,58.0,55.0,-100.00,ESE,121,3.0,4.0,91,0.00,,,0.00,7.000000,,2013-08-19 01:22:00,
2013-08-18 21:52:00,55.0,53.0,-100.00,SE,130,2.0,4.0,93,0.00,,,0.00,0.000000,,2013-08-19 01:52:00,
2013-08-18 22:06:00,55.0,53.0,-100.00,SE,130,2.0,4.0,93,0.00,,,0.00,0.000000,,2013-08-19 02:06:00,
2013-08-18 22:11:00,55.0,53.0,-100.00,SE,130,2.0,4.0,93,0.00,,,0.00,0.000000,,2013-08-19 02:11:00,
2013-08-18 22:22:00,55.0,53.0,-100.00,SE,130,2.0,4.0,93,0.00,,,0.00,0.000000,,2013-08-19 02:22:00,
2013-08-18 22:52:00,53.0,52.0,-100.00,SSE,147,2.0,3.0,97,0.00,,,0.00,0.000000,,2013-08-19 02:52:00,
2013-08-18 23:01:00,53.0,52.0,-100.00,SSE,147,2.0,3.0,97,0.00,,,0.00,0.000000,,2013-08-19 03:01:00,
2013-08-18 23:11:00,53.0,52.0,-100.00,SSE,147,2.0,3.0,97,0.00,,,0.00,0.000000,,2013-08-19 03:11:00,
2013-08-18 23:21:00,53.0,52.0,-100.00,SSE,147,2.0,3.0,97,0.00,,,0.00,0.000000,,2013-08-19 03:21:00,
2013-08-18 23:53:00,53.0,52.0,-100.00,WSW,251,0.0,3.0,98,0.00,,,0.00,0.000000,,2013-08-19 03:53:00,